User: anonymous   Login
Location: Unspecified
(0.0000°N, 0.0000°E)
Time: 08:53:24
(UTC+00:00)
Language:

Megsat 1 - Orbit

View from above orbital plane
View from above orbital plane
View from above satellite
View from above satellite

Ground track
Ground track

The orbit data is extracted from the following two-line orbital elements,

1 26545U 00057A   24113.75351870  .00005985  00000-0  64812-3 0  9992
2 26545  64.5546 238.5561 0043484 234.9497 124.7530 14.88415848275912
Epoch (UTC): 22 April 2024 18:05:04
Eccentricity: 0.0043484
inclination: 64.5546°
perigee height: 572 km
apogee height: 633 km
right ascension of ascending node: 238.5561°
argument of perigee: 234.9497°
revolutions per day: 14.88415848
mean anomaly at epoch: 124.7530°
orbit number at epoch: 27591

The dashed part of the orbit path shows where the satellite is in the earth's shadow,  

DLR